Precipitable_Water
0.56 0.54 0.56 0.56 0.56 0.52 0.50 0.48 0.46 0.45 0.42 0.42 0.40 0.39 0.38 0.36 0.34 0.35 0.36 0.34 0.36 0.36 0.37 0.38 0.38 0.38 0.38 0.37 0.36 0.37 0.38 0.40 0.42 0.41 0.40 0.39 0.40 0.41 0.42 0.44 0.44 0.44 0.45 0.44 0.47 0.48 0.48 0.47 0.48 0.51 0.55 0.53 0.53 0.54 0.54 0.57 0.60 0.63 0.65 0.66 0.66 0.69 0.70 0.67 0.63 0.65 0.71 0.80 0.83 0.86 0.98 1.06 1.07 1.10 1.06 1.05 1.03 1.05 1.09 1.15 1.19 1.18 1.14 1.10 1.05
0.55 0.56 0.56 0.57 0.55 0.52 0.49 0.48 0.46 0.43 0.40 0.39 0.37 0.36 0.35 0.35 0.36 0.36 0.35 0.36 0.36 0.36 0.36 0.37 0.38 0.38 0.37 0.37 0.38 0.40 0.42 0.42 0.43 0.42 0.40 0.39 0.38 0.40 0.41 0.43 0.43 0.44 0.45 0.44 0.45 0.47 0.47 0.45 0.45 0.47 0.51 0.51 0.52 0.54 0.55 0.55 0.56 0.57 0.59 0.61 0.61 0.64 0.70 0.66 0.64 0.63 0.61 0.72 0.78 0.84 0.89 1.01 1.01 1.13 1.08 1.06 1.04 1.05 1.04 1.10 1.15 1.18 1.16 1.13 1.08
0.58 0.57 0.57 0.56 0.54 0.51 0.49 0.47 0.45 0.41 0.38 0.37 0.35 0.34 0.35 0.36 0.38 0.37 0.36 0.36 0.38 0.37 0.37 0.37 0.37 0.37 0.37 0.38 0.40 0.41 0.42 0.42 0.43 0.42 0.41 0.41 0.40 0.41 0.43 0.44 0.44 0.44 0.44 0.45 0.46 0.47 0.45 0.44 0.44 0.46 0.49 0.48 0.50 0.53 0.56 0.57 0.57 0.56 0.55 0.58 0.58 0.61 0.65 0.69 0.65 0.60 0.62 0.62 0.73 0.77 0.80 0.88 0.95 1.04 1.12 1.12 1.13 1.10 1.04 1.05 1.09 1.13 1.16 1.16 1.10
0.58 0.58 0.57 0.56 0.53 0.50 0.48 0.47 0.44 0.39 0.36 0.36 0.34 0.35 0.37 0.38 0.40 0.40 0.40 0.40 0.38 0.38 0.38 0.37 0.38 0.37 0.37 0.39 0.41 0.41 0.42 0.42 0.41 0.41 0.42 0.44 0.43 0.43 0.43 0.44 0.45 0.46 0.45 0.45 0.45 0.45 0.44 0.43 0.44 0.46 0.48 0.47 0.48 0.49 0.53 0.56 0.57 0.57 0.57 0.58 0.59 0.60 0.62 0.65 0.68 0.66 0.64 0.60 0.63 0.74 0.81 0.81 0.86 1.00 1.10 1.15 1.13 1.11 1.08 1.07 1.09 1.10 1.12 1.13 1.10
0.59 0.58 0.57 0.54 0.51 0.49 0.48 0.46 0.44 0.40 0.37 0.37 0.37 0.38 0.39 0.40 0.41 0.41 0.41 0.41 0.41 0.40 0.39 0.40 0.39 0.40 0.40 0.41 0.42 0.42 0.42 0.42 0.42 0.42 0.43 0.46 0.45 0.44 0.43 0.43 0.45 0.45 0.46 0.45 0.45 0.45 0.44 0.43 0.44 0.46 0.46 0.45 0.46 0.48 0.51 0.52 0.56 0.58 0.58 0.60 0.60 0.61 0.61 0.63 0.64 0.67 0.66 0.63 0.63 0.69 0.80 0.83 0.87 0.91 1.01 1.05 1.10 1.11 1.10 1.04 1.03 1.05 1.08 1.10 1.09
0.60 0.58 0.57 0.53 0.50 0.49 0.47 0.45 0.44 0.42 0.40 0.39 0.38 0.39 0.40 0.41 0.41 0.42 0.43 0.42 0.42 0.42 0.42 0.41 0.41 0.41 0.42 0.42 0.43 0.42 0.42 0.42 0.42 0.42 0.42 0.43 0.44 0.42 0.41 0.41 0.41 0.42 0.44 0.45 0.46 0.46 0.46 0.45 0.46 0.46 0.46 0.44 0.45 0.49 0.52 0.53 0.55 0.56 0.57 0.58 0.59 0.60 0.59 0.59 0.60 0.61 0.62 0.63 0.66 0.63 0.71 0.75 0.79 0.84 0.92 1.01 1.04 1.04 1.04 1.03 1.03 1.03 1.03 1.04 1.03
0.58 0.57 0.56 0.52 0.50 0.49 0.47 0.45 0.45 0.45 0.43 0.42 0.41 0.41 0.41 0.42 0.43 0.42 0.44 0.45 0.44 0.42 0.42 0.42 0.41 0.41 0.41 0.42 0.41 0.41 0.41 0.41 0.41 0.41 0.41 0.42 0.42 0.42 0.41 0.40 0.40 0.40 0.40 0.40 0.41 0.43 0.45 0.46 0.46 0.47 0.46 0.46 0.47 0.48 0.51 0.53 0.54 0.55 0.57 0.58 0.60 0.59 0.57 0.57 0.58 0.57 0.57 0.58 0.61 0.65 0.66 0.73 0.76 0.75 0.88 0.97 1.02 1.06 1.02 0.98 0.95 0.98 0.99 1.01 0.97
0.57 0.56 0.54 0.51 0.50 0.49 0.47 0.47 0.47 0.47 0.47 0.46 0.43 0.42 0.43 0.43 0.44 0.45 0.46 0.46 0.45 0.44 0.43 0.42 0.41 0.41 0.41 0.41 0.41 0.42 0.41 0.40 0.40 0.41 0.42 0.43 0.44 0.44 0.44 0.42 0.41 0.41 0.40 0.40 0.39 0.39 0.41 0.42 0.43 0.45 0.46 0.48 0.50 0.50 0.50 0.51 0.54 0.54 0.57 0.59 0.59 0.59 0.57 0.56 0.55 0.55 0.54 0.55 0.56 0.56 0.62 0.66 0.73 0.79 0.87 0.89 0.88 0.93 1.01 0.99 0.93 0.93 0.93 0.96 0.98
0.56 0.54 0.52 0.50 0.50 0.49 0.48 0.49 0.49 0.49 0.48 0.47 0.45 0.43 0.44 0.44 0.45 0.46 0.46 0.47 0.47 0.46 0.45 0.45 0.43 0.42 0.41 0.40 0.41 0.41 0.41 0.40 0.40 0.41 0.42 0.43 0.45 0.45 0.45 0.44 0.43 0.42 0.41 0.42 0.42 0.41 0.40 0.39 0.40 0.42 0.46 0.48 0.49 0.50 0.51 0.53 0.52 0.51 0.55 0.57 0.56 0.56 0.57 0.57 0.56 0.54 0.54 0.55 0.54 0.57 0.56 0.59 0.67 0.73 0.75 0.78 0.79 0.83 0.98 1.02 0.99 0.97 0.97 0.95 0.96
0.55 0.52 0.50 0.49 0.50 0.49 0.49 0.49 0.49 0.49 0.48 0.46 0.45 0.45 0.45 0.45 0.46 0.46 0.46 0.46 0.46 0.46 0.45 0.46 0.45 0.44 0.43 0.42 0.41 0.41 0.41 0.41 0.41 0.43 0.45 0.45 0.45 0.46 0.46 0.45 0.44 0.43 0.42 0.42 0.43 0.43 0.43 0.42 0.41 0.40 0.42 0.44 0.46 0.47 0.48 0.49 0.52 0.54 0.53 0.53 0.54 0.55 0.55 0.55 0.55 0.54 0.53 0.52 0.53 0.54 0.51 0.52 0.59 0.69 0.73 0.77 0.84 0.91 0.94 0.99 0.97 0.98 0.96 0.92 0.94
0.53 0.51 0.49 0.50 0.50 0.50 0.49 0.49 0.49 0.48 0.47 0.46 0.47 0.46 0.46 0.46 0.46 0.45 0.45 0.45 0.45 0.46 0.47 0.46 0.46 0.46 0.45 0.44 0.43 0.42 0.42 0.42 0.42 0.43 0.44 0.45 0.46 0.47 0.47 0.46 0.45 0.43 0.42 0.42 0.42 0.43 0.43 0.43 0.43 0.42 0.41 0.41 0.43 0.48 0.49 0.49 0.50 0.50 0.49 0.49 0.52 0.55 0.55 0.54 0.55 0.56 0.54 0.53 0.55 0.55 0.54 0.52 0.56 0.65 0.71 0.76 0.82 0.85 0.88 0.95 0.98 0.98 0.92 0.86 0.80
0.51 0.51 0.50 0.50 0.50 0.50 0.49 0.49 0.48 0.47 0.47 0.46 0.47 0.47 0.47 0.46 0.45 0.45 0.46 0.46 0.47 0.48 0.48 0.48 0.47 0.47 0.47 0.46 0.45 0.44 0.45 0.45 0.45 0.44 0.44 0.45 0.47 0.47 0.47 0.46 0.44 0.42 0.42 0.42 0.43 0.43 0.42 0.41 0.41 0.41 0.41 0.40 0.42 0.44 0.47 0.51 0.51 0.49 0.47 0.46 0.47 0.51 0.57 0.58 0.56 0.55 0.56 0.55 0.54 0.55 0.56 0.55 0.56 0.61 0.67 0.73 0.76 0.82 0.88 0.91 0.93 0.93 0.93 0.90 0.86
0.51 0.50 0.51 0.50 0.50 0.50 0.49 0.48 0.48 0.47 0.47 0.47 0.48 0.47 0.47 0.46 0.46 0.46 0.47 0.48 0.50 0.49 0.49 0.50 0.49 0.50 0.50 0.49 0.48 0.48 0.47 0.48 0.48 0.46 0.46 0.47 0.48 0.48 0.48 0.47 0.44 0.42 0.42 0.43 0.43 0.44 0.43 0.42 0.41 0.42 0.41 0.41 0.40 0.40 0.42 0.46 0.49 0.50 0.48 0.46 0.45 0.47 0.51 0.57 0.61 0.61 0.62 0.59 0.57 0.55 0.56 0.58 0.57 0.59 0.67 0.71 0.77 0.75 0.82 0.86 0.89 0.92 0.94 0.93 0.92
0.52 0.51 0.51 0.51 0.50 0.50 0.50 0.49 0.49 0.49 0.49 0.49 0.49 0.48 0.47 0.47 0.48 0.49 0.51 0.52 0.52 0.52 0.52 0.52 0.51 0.51 0.51 0.51 0.51 0.50 0.50 0.50 0.50 0.49 0.48 0.48 0.49 0.49 0.49 0.48 0.45 0.43 0.43 0.44 0.45 0.45 0.45 0.44 0.43 0.43 0.44 0.44 0.43 0.42 0.42 0.41 0.43 0.44 0.45 0.44 0.43 0.45 0.48 0.52 0.56 0.58 0.61 0.61 0.60 0.57 0.60 0.64 0.60 0.63 0.68 0.74 0.73 0.72 0.75 0.79 0.86 0.88 0.92 0.92 0.98
0.52 0.51 0.50 0.50 0.51 0.51 0.50 0.50 0.49 0.50 0.50 0.51 0.51 0.50 0.50 0.51 0.51 0.53 0.54 0.54 0.54 0.53 0.53 0.53 0.53 0.53 0.53 0.53 0.53 0.52 0.52 0.53 0.52 0.51 0.50 0.49 0.49 0.50 0.50 0.49 0.47 0.44 0.44 0.45 0.45 0.46 0.46 0.46 0.45 0.45 0.45 0.45 0.45 0.44 0.43 0.42 0.41 0.41 0.42 0.43 0.43 0.44 0.46 0.49 0.53 0.57 0.59 0.61 0.62 0.63 0.64 0.65 0.66 0.68 0.70 0.74 0.75 0.78 0.82 0.83 0.88 0.92 0.98 1.02 1.02
0.51 0.51 0.51 0.51 0.51 0.52 0.51 0.50 0.50 0.51 0.52 0.52 0.53 0.53 0.54 0.55 0.55 0.56 0.56 0.56 0.56 0.56 0.55 0.55 0.54 0.53 0.53 0.53 0.53 0.52 0.53 0.54 0.54 0.53 0.51 0.50 0.50 0.50 0.50 0.49 0.47 0.44 0.43 0.44 0.45 0.46 0.47 0.47 0.46 0.45 0.45 0.45 0.45 0.45 0.44 0.45 0.42 0.40 0.40 0.43 0.43 0.44 0.45 0.50 0.54 0.57 0.60 0.62 0.64 0.66 0.68 0.69 0.69 0.69 0.72 0.74 0.75 0.78 0.85 0.89 0.91 0.91 0.88 0.89 0.89
0.51 0.52 0.52 0.52 0.52 0.52 0.52 0.52 0.52 0.53 0.53 0.53 0.54 0.54 0.55 0.55 0.56 0.58 0.57 0.56 0.55 0.55 0.54 0.54 0.54 0.53 0.52 0.52 0.51 0.51 0.52 0.52 0.51 0.49 0.47 0.48 0.50 0.49 0.49 0.48 0.47 0.44 0.42 0.43 0.44 0.45 0.46 0.47 0.47 0.46 0.46 0.46 0.47 0.46 0.44 0.44 0.43 0.42 0.42 0.43 0.45 0.44 0.42 0.48 0.53 0.56 0.58 0.61 0.63 0.65 0.68 0.69 0.69 0.70 0.74 0.77 0.77 0.79 0.80 0.77 0.80 0.86 0.82 0.80 0.85
0.53 0.53 0.52 0.53 0.54 0.55 0.56 0.56 0.55 0.54 0.54 0.54 0.55 0.56 0.57 0.57 0.58 0.60 0.57 0.55 0.53 0.54 0.55 0.54 0.54 0.53 0.51 0.50 0.51 0.50 0.49 0.49 0.49 0.46 0.44 0.47 0.50 0.50 0.49 0.47 0.44 0.43 0.41 0.43 0.44 0.44 0.45 0.47 0.48 0.48 0.48 0.48 0.48 0.47 0.45 0.45 0.43 0.43 0.42 0.42 0.42 0.41 0.42 0.47 0.51 0.54 0.58 0.60 0.62 0.64 0.66 0.68 0.69 0.70 0.72 0.76 0.78 0.79 0.76 0.69 0.78 0.84 0.81 0.82 0.81
0.54 0.54 0.55 0.56 0.57 0.57 0.57 0.57 0.57 0.56 0.56 0.57 0.58 0.58 0.59 0.59 0.59 0.59 0.58 0.56 0.55 0.55 0.53 0.51 0.50 0.50 0.51 0.50 0.49 0.48 0.48 0.48 0.45 0.43 0.44 0.47 0.50 0.50 0.49 0.46 0.42 0.40 0.40 0.40 0.42 0.43 0.44 0.46 0.47 0.48 0.48 0.48 0.48 0.48 0.46 0.46 0.45 0.45 0.44 0.43 0.42 0.41 0.44 0.48 0.47 0.48 0.50 0.53 0.56 0.61 0.63 0.68 0.70 0.70 0.72 0.75 0.77 0.79 0.81 0.81 0.85 0.83 0.82 0.82 0.85
0.58 0.59 0.59 0.59 0.59 0.59 0.60 0.60 0.60 0.59 0.59 0.58 0.59 0.58 0.59 0.59 0.58 0.57 0.55 0.53 0.50 0.47 0.44 0.42 0.41 0.42 0.44 0.45 0.46 0.47 0.45 0.42 0.43 0.43 0.43 0.43 0.44 0.45 0.46 0.42 0.38 0.37 0.39 0.39 0.39 0.40 0.43 0.45 0.47 0.47 0.48 0.47 0.47 0.47 0.46 0.46 0.47 0.47 0.47 0.44 0.43 0.42 0.49 0.49 0.50 0.51 0.50 0.52 0.54 0.58 0.61 0.67 0.71 0.73 0.74 0.75 0.77 0.79 0.81 0.84 0.84 0.85 0.85 0.86 0.87
0.60 0.60 0.60 0.61 0.61 0.60 0.60 0.59 0.57 0.56 0.57 0.56 0.57 0.58 0.58 0.56 0.55 0.53 0.50 0.48 0.45 0.42 0.41 0.41 0.41 0.41 0.40 0.38 0.37 0.39 0.42 0.43 0.44 0.44 0.43 0.42 0.42 0.43 0.43 0.41 0.39 0.38 0.38 0.38 0.39 0.39 0.41 0.45 0.47 0.48 0.49 0.48 0.47 0.47 0.47 0.45 0.47 0.50 0.49 0.47 0.48 0.50 0.53 0.50 0.50 0.52 0.51 0.52 0.55 0.58 0.61 0.65 0.69 0.72 0.73 0.75 0.76 0.78 0.80 0.83 0.88 0.90 0.89 0.87 0.87
0.62 0.62 0.61 0.60 0.59 0.57 0.56 0.56 0.57 0.57 0.57 0.58 0.57 0.56 0.55 0.54 0.51 0.49 0.46 0.43 0.41 0.40 0.39 0.38 0.37 0.36 0.36 0.35 0.36 0.38 0.41 0.42 0.43 0.42 0.42 0.41 0.41 0.43 0.42 0.41 0.41 0.39 0.37 0.38 0.38 0.39 0.42 0.45 0.46 0.49 0.50 0.48 0.47 0.47 0.46 0.45 0.48 0.50 0.51 0.53 0.53 0.52 0.51 0.52 0.52 0.51 0.51 0.52 0.54 0.56 0.59 0.62 0.65 0.70 0.74 0.75 0.77 0.79 0.80 0.82 0.87 0.93 0.95 0.95 0.91
0.61 0.59 0.58 0.57 0.56 0.56 0.56 0.56 0.56 0.57 0.56 0.55 0.52 0.49 0.48 0.46 0.44 0.42 0.41 0.40 0.40 0.38 0.36 0.35 0.34 0.32 0.32 0.33 0.37 0.40 0.43 0.44 0.44 0.43 0.42 0.42 0.41 0.42 0.43 0.44 0.43 0.42 0.38 0.36 0.37 0.40 0.43 0.45 0.48 0.50 0.50 0.48 0.47 0.47 0.46 0.47 0.49 0.52 0.54 0.54 0.53 0.52 0.52 0.52 0.52 0.51 0.50 0.51 0.53 0.54 0.57 0.61 0.64 0.67 0.70 0.74 0.78 0.80 0.80 0.81 0.85 0.91 0.94 0.98 1.00
0.58 0.56 0.55 0.54 0.54 0.54 0.54 0.54 0.55 0.53 0.50 0.48 0.45 0.42 0.41 0.41 0.41 0.41 0.41 0.41 0.39 0.37 0.36 0.34 0.32 0.30 0.29 0.29 0.33 0.39 0.45 0.48 0.48 0.48 0.47 0.45 0.43 0.42 0.41 0.42 0.42 0.41 0.40 0.39 0.41 0.42 0.42 0.43 0.46 0.49 0.48 0.47 0.47 0.48 0.48 0.48 0.50 0.53 0.54 0.54 0.53 0.53 0.52 0.52 0.52 0.51 0.51 0.51 0.52 0.54 0.56 0.62 0.66 0.66 0.69 0.72 0.75 0.80 0.82 0.83 0.84 0.88 0.92 0.96 0.99
0.55 0.53 0.53 0.52 0.51 0.51 0.50 0.48 0.46 0.44 0.42 0.41 0.39 0.40 0.40 0.41 0.40 0.41 0.41 0.38 0.35 0.33 0.32 0.33 0.33 0.33 0.32 0.31 0.32 0.37 0.44 0.48 0.50 0.51 0.51 0.49 0.46 0.43 0.41 0.41 0.40 0.41 0.41 0.42 0.42 0.41 0.42 0.44 0.47 0.48 0.47 0.46 0.47 0.50 0.50 0.50 0.52 0.54 0.54 0.54 0.54 0.53 0.51 0.51 0.51 0.51 0.49 0.50 0.52 0.56 0.60 0.63 0.65 0.67 0.71 0.73 0.76 0.79 0.83 0.84 0.86 0.87 0.89 0.92 0.97
0.52 0.51 0.50 0.49 0.48 0.47 0.44 0.42 0.41 0.40 0.39 0.40 0.40 0.41 0.41 0.41 0.39 0.37 0.36 0.35 0.36 0.36 0.37 0.38 0.37 0.37 0.36 0.35 0.35 0.38 0.44 0.47 0.48 0.50 0.52 0.52 0.50 0.46 0.44 0.43 0.42 0.42 0.43 0.41 0.40 0.41 0.42 0.44 0.46 0.47 0.46 0.46 0.49 0.50 0.49 0.50 0.51 0.53 0.53 0.53 0.53 0.52 0.50 0.50 0.51 0.51 0.50 0.51 0.53 0.56 0.61 0.66 0.67 0.69 0.71 0.72 0.71 0.73 0.78 0.80 0.82 0.82 0.84 0.84 0.85
0.50 0.49 0.48 0.46 0.45 0.44 0.42 0.40 0.39 0.38 0.39 0.40 0.41 0.40 0.39 0.37 0.37 0.37 0.38 0.38 0.39 0.40 0.41 0.40 0.40 0.40 0.39 0.39 0.39 0.40 0.42 0.46 0.47 0.49 0.51 0.52 0.52 0.51 0.50 0.49 0.48 0.45 0.43 0.42 0.42 0.41 0.42 0.43 0.45 0.47 0.46 0.47 0.49 0.51 0.50 0.50 0.49 0.50 0.50 0.52 0.52 0.51 0.50 0.51 0.52 0.52 0.52 0.53 0.55 0.58 0.62 0.66 0.70 0.69 0.67 0.68 0.69 0.73 0.78 0.79 0.78 0.78 0.80 0.82 0.81
0.48 0.46 0.44 0.44 0.43 0.43 0.41 0.40 0.39 0.38 0.38 0.39 0.37 0.37 0.38 0.40 0.40 0.40 0.40 0.41 0.41 0.41 0.42 0.42 0.41 0.41 0.41 0.42 0.42 0.42 0.42 0.44 0.46 0.48 0.49 0.49 0.49 0.49 0.51 0.51 0.51 0.50 0.48 0.47 0.46 0.44 0.44 0.44 0.46 0.47 0.46 0.46 0.48 0.49 0.48 0.48 0.47 0.48 0.48 0.50 0.51 0.51 0.51 0.53 0.56 0.57 0.57 0.58 0.58 0.60 0.63 0.66 0.64 0.65 0.67 0.67 0.68 0.73 0.78 0.77 0.77 0.77 0.79 0.80 0.77
0.44 0.44 0.44 0.43 0.42 0.42 0.41 0.40 0.38 0.37 0.37 0.37 0.39 0.41 0.42 0.42 0.42 0.43 0.45 0.46 0.46 0.44 0.41 0.41 0.42 0.42 0.42 0.42 0.41 0.39 0.39 0.41 0.44 0.49 0.50 0.51 0.51 0.50 0.48 0.50 0.51 0.51 0.54 0.54 0.52 0.50 0.48 0.44 0.43 0.43 0.43 0.42 0.43 0.45 0.45 0.44 0.44 0.46 0.47 0.48 0.48 0.49 0.49 0.49 0.49 0.53 0.56 0.57 0.57 0.58 0.60 0.62 0.63 0.64 0.66 0.67 0.68 0.70 0.75 0.75 0.78 0.78 0.80 0.80 0.76
0.43 0.42 0.43 0.42 0.42 0.41 0.38 0.36 0.36 0.37 0.38 0.40 0.41 0.42 0.45 0.44 0.43 0.42 0.41 0.42 0.42 0.42 0.42 0.40 0.41 0.41 0.40 0.41 0.44 0.42 0.40 0.42 0.44 0.45 0.46 0.47 0.49 0.50 0.50 0.51 0.52 0.52 0.55 0.55 0.55 0.50 0.48 0.45 0.43 0.41 0.41 0.41 0.42 0.43 0.44 0.43 0.42 0.43 0.44 0.46 0.47 0.46 0.47 0.48 0.48 0.50 0.56 0.58 0.59 0.60 0.59 0.61 0.63 0.63 0.62 0.64 0.67 0.70 0.73 0.73 0.73 0.76 0.75 0.75 0.74
0.42 0.42 0.42 0.41 0.40 0.37 0.36 0.36 0.38 0.39 0.41 0.42 0.41 0.40 0.38 0.40 0.41 0.40 0.39 0.38 0.37 0.36 0.35 0.34 0.34 0.34 0.36 0.36 0.38 0.41 0.42 0.42 0.41 0.41 0.41 0.42 0.44 0.45 0.47 0.50 0.51 0.51 0.54 0.54 0.53 0.50 0.47 0.45 0.44 0.43 0.41 0.42 0.42 0.42 0.44 0.43 0.42 0.42 0.43 0.45 0.46 0.45 0.45 0.45 0.47 0.49 0.51 0.56 0.59 0.62 0.63 0.61 0.60 0.61 0.59 0.60 0.63 0.66 0.68 0.71 0.72 0.74 0.74 0.74 0.73
0.41 0.40 0.39 0.37 0.36 0.36 0.37 0.39 0.40 0.41 0.41 0.41 0.40 0.39 0.38 0.37 0.37 0.40 0.39 0.37 0.36 0.34 0.31 0.28 0.26 0.25 0.26 0.27 0.29 0.29 0.29 0.31 0.32 0.34 0.37 0.38 0.40 0.41 0.42 0.44 0.47 0.49 0.52 0.54 0.52 0.50 0.49 0.47 0.45 0.44 0.42 0.42 0.43 0.44 0.44 0.43 0.43 0.43 0.43 0.43 0.44 0.45 0.44 0.43 0.45 0.47 0.48 0.51 0.55 0.59 0.61 0.62 0.60 0.60 0.60 0.60 0.62 0.64 0.66 0.67 0.68 0.70 0.71 0.73 0.73
0.37 0.35 0.35 0.36 0.37 0.39 0.40 0.40 0.41 0.41 0.40 0.40 0.39 0.39 0.37 0.36 0.34 0.33 0.36 0.37 0.34 0.30 0.27 0.24 0.22 0.22 0.22 0.22 0.22 0.22 0.21 0.22 0.22 0.24 0.27 0.30 0.33 0.35 0.38 0.40 0.43 0.44 0.44 0.48 0.51 0.51 0.50 0.49 0.47 0.46 0.43 0.42 0.44 0.45 0.44 0.44 0.44 0.44 0.44 0.43 0.43 0.43 0.43 0.43 0.44 0.42 0.44 0.50 0.54 0.57 0.61 0.63 0.62 0.61 0.60 0.60 0.60 0.61 0.64 0.65 0.67 0.68 0.70 0.70 0.71
0.38 0.37 0.37 0.38 0.39 0.40 0.41 0.42 0.41 0.41 0.41 0.40 0.39 0.38 0.37 0.35 0.33 0.32 0.29 0.26 0.25 0.25 0.26 0.26 0.24 0.23 0.23 0.23 0.23 0.21 0.20 0.20 0.19 0.20 0.22 0.24 0.26 0.29 0.31 0.32 0.36 0.39 0.40 0.41 0.49 0.50 0.51 0.50 0.49 0.47 0.45 0.45 0.44 0.44 0.44 0.44 0.46 0.46 0.44 0.43 0.42 0.41 0.41 0.41 0.39 0.38 0.40 0.46 0.52 0.56 0.60 0.62 0.63 0.60 0.59 0.59 0.60 0.61 0.61 0.63 0.65 0.64 0.66 0.68 0.68
0.40 0.40 0.40 0.41 0.41 0.42 0.42 0.42 0.42 0.41 0.41 0.40 0.38 0.37 0.35 0.34 0.31 0.28 0.25 0.22 0.21 0.20 0.21 0.21 0.23 0.24 0.23 0.22 0.22 0.22 0.21 0.20 0.20 0.20 0.21 0.22 0.24 0.26 0.27 0.26 0.25 0.29 0.34 0.37 0.45 0.50 0.51 0.49 0.49 0.49 0.47 0.45 0.44 0.44 0.44 0.46 0.48 0.47 0.43 0.42 0.41 0.40 0.38 0.37 0.36 0.36 0.38 0.43 0.49 0.53 0.57 0.60 0.62 0.61 0.59 0.57 0.57 0.58 0.59 0.60 0.62 0.63 0.64 0.66 0.67
0.40 0.41 0.42 0.43 0.43 0.43 0.43 0.43 0.42 0.41 0.40 0.39 0.38 0.36 0.33 0.30 0.27 0.23 0.22 0.21 0.21 0.20 0.19 0.20 0.21 0.22 0.22 0.21 0.21 0.21 0.22 0.21 0.22 0.21 0.21 0.22 0.23 0.25 0.23 0.24 0.24 0.26 0.30 0.34 0.38 0.47 0.52 0.52 0.51 0.50 0.50 0.48 0.47 0.45 0.45 0.48 0.49 0.48 0.46 0.44 0.42 0.40 0.39 0.36 0.35 0.34 0.37 0.41 0.45 0.51 0.53 0.57 0.61 0.61 0.61 0.59 0.58 0.58 0.59 0.60 0.61 0.62 0.64 0.65 0.67
0.42 0.42 0.43 0.44 0.44 0.44 0.44 0.44 0.43 0.42 0.40 0.38 0.35 0.32 0.30 0.26 0.23 0.22 0.22 0.21 0.20 0.20 0.19 0.20 0.20 0.19 0.21 0.22 0.23 0.23 0.23 0.23 0.24 0.24 0.25 0.25 0.25 0.24 0.24 0.24 0.25 0.27 0.29 0.32 0.35 0.40 0.48 0.52 0.53 0.52 0.51 0.49 0.47 0.47 0.48 0.48 0.50 0.49 0.49 0.48 0.45 0.42 0.39 0.37 0.34 0.33 0.36 0.39 0.42 0.47 0.51 0.54 0.57 0.60 0.60 0.58 0.58 0.58 0.59 0.60 0.61 0.62 0.63 0.64 0.66
0.44 0.44 0.44 0.45 0.45 0.45 0.44 0.43 0.42 0.40 0.37 0.35 0.32 0.28 0.25 0.23 0.23 0.22 0.21 0.20 0.20 0.20 0.20 0.20 0.20 0.19 0.19 0.20 0.23 0.23 0.23 0.23 0.23 0.23 0.23 0.24 0.25 0.25 0.25 0.25 0.26 0.27 0.29 0.34 0.38 0.40 0.44 0.51 0.53 0.50 0.49 0.49 0.48 0.52 0.53 0.52 0.52 0.51 0.49 0.47 0.45 0.42 0.40 0.36 0.33 0.33 0.35 0.39 0.40 0.44 0.48 0.52 0.55 0.58 0.60 0.58 0.57 0.57 0.58 0.59 0.60 0.60 0.61 0.63 0.64
0.45 0.45 0.46 0.46 0.46 0.45 0.44 0.42 0.40 0.37 0.33 0.29 0.27 0.25 0.24 0.23 0.22 0.22 0.21 0.21 0.21 0.20 0.20 0.20 0.20 0.20 0.21 0.22 0.22 0.23 0.22 0.21 0.22 0.23 0.24 0.25 0.27 0.27 0.27 0.26 0.26 0.27 0.30 0.33 0.39 0.41 0.43 0.46 0.52 0.52 0.51 0.51 0.49 0.49 0.52 0.51 0.51 0.50 0.48 0.46 0.45 0.41 0.37 0.35 0.34 0.32 0.33 0.35 0.39 0.43 0.46 0.50 0.53 0.56 0.58 0.58 0.57 0.57 0.58 0.59 0.60 0.60 0.59 0.60 0.62
0.46 0.46 0.47 0.47 0.46 0.45 0.43 0.39 0.36 0.32 0.28 0.26 0.25 0.24 0.23 0.22 0.22 0.21 0.21 0.20 0.19 0.20 0.20 0.20 0.20 0.21 0.22 0.23 0.23 0.24 0.22 0.22 0.24 0.25 0.26 0.26 0.27 0.28 0.28 0.27 0.26 0.27 0.29 0.31 0.36 0.42 0.45 0.48 0.52 0.51 0.51 0.52 0.50 0.52 0.52 0.50 0.49 0.49 0.47 0.45 0.42 0.40 0.37 0.38 0.38 0.35 0.33 0.37 0.39 0.42 0.45 0.47 0.50 0.52 0.55 0.57 0.58 0.58 0.58 0.58 0.60 0.61 0.61 0.61 0.61
0.48 0.48 0.47 0.47 0.45 0.42 0.38 0.32 0.29 0.28 0.27 0.26 0.25 0.24 0.22 0.22 0.21 0.21 0.21 0.20 0.20 0.20 0.21 0.21 0.20 0.21 0.23 0.24 0.25 0.25 0.24 0.24 0.26 0.28 0.29 0.30 0.31 0.31 0.30 0.29 0.28 0.27 0.29 0.32 0.36 0.42 0.46 0.48 0.52 0.52 0.52 0.52 0.54 0.53 0.51 0.49 0.48 0.48 0.46 0.45 0.43 0.41 0.39 0.39 0.40 0.38 0.33 0.34 0.39 0.41 0.45 0.47 0.48 0.49 0.50 0.54 0.57 0.58 0.59 0.59 0.60 0.60 0.61 0.61 0.61
0.48 0.48 0.47 0.45 0.41 0.35 0.30 0.27 0.27 0.27 0.26 0.24 0.23 0.22 0.22 0.21 0.21 0.20 0.20 0.20 0.20 0.21 0.21 0.20 0.20 0.21 0.23 0.23 0.23 0.24 0.24 0.25 0.27 0.29 0.31 0.32 0.33 0.34 0.34 0.33 0.32 0.31 0.32 0.34 0.37 0.41 0.46 0.48 0.52 0.52 0.52 0.52 0.52 0.51 0.50 0.48 0.47 0.45 0.44 0.44 0.42 0.40 0.37 0.36 0.37 0.37 0.35 0.33 0.36 0.40 0.43 0.45 0.46 0.49 0.50 0.52 0.54 0.56 0.57 0.58 0.59 0.60 0.60 0.60 0.60
0.48 0.47 0.44 0.39 0.33 0.30 0.28 0.27 0.26 0.25 0.23 0.23 0.22 0.22 0.21 0.20 0.19 0.20 0.20 0.20 0.21 0.21 0.20 0.19 0.20 0.21 0.21 0.22 0.23 0.24 0.24 0.25 0.27 0.30 0.32 0.33 0.35 0.36 0.36 0.35 0.35 0.36 0.37 0.38 0.41 0.45 0.48 0.50 0.52 0.52 0.51 0.51 0.51 0.50 0.48 0.47 0.46 0.44 0.43 0.43 0.41 0.39 0.37 0.35 0.34 0.34 0.35 0.33 0.35 0.39 0.39 0.42 0.45 0.47 0.48 0.50 0.51 0.53 0.55 0.57 0.58 0.58 0.59 0.60 0.60
0.46 0.42 0.37 0.32 0.29 0.28 0.27 0.25 0.24 0.23 0.23 0.22 0.21 0.20 0.20 0.19 0.20 0.20 0.20 0.20 0.20 0.20 0.19 0.19 0.20 0.20 0.20 0.21 0.22 0.23 0.23 0.25 0.27 0.29 0.31 0.33 0.35 0.37 0.38 0.38 0.37 0.38 0.39 0.41 0.45 0.49 0.50 0.49 0.49 0.50 0.49 0.49 0.49 0.48 0.47 0.46 0.45 0.42 0.40 0.39 0.39 0.37 0.35 0.34 0.33 0.33 0.33 0.32 0.34 0.37 0.39 0.41 0.43 0.45 0.46 0.49 0.50 0.51 0.53 0.55 0.56 0.57 0.58 0.58 0.59
0.40 0.35 0.31 0.28 0.27 0.26 0.25 0.24 0.23 0.22 0.21 0.20 0.19 0.19 0.19 0.20 0.19 0.20 0.20 0.20 0.20 0.20 0.19 0.20 0.20 0.20 0.20 0.21 0.22 0.22 0.23 0.25 0.27 0.29 0.31 0.33 0.35 0.38 0.39 0.41 0.40 0.40 0.40 0.42 0.45 0.46 0.46 0.46 0.46 0.45 0.45 0.45 0.44 0.44 0.43 0.42 0.41 0.40 0.39 0.38 0.38 0.36 0.35 0.33 0.32 0.32 0.33 0.32 0.33 0.33 0.35 0.37 0.38 0.40 0.43 0.47 0.50 0.51 0.51 0.53 0.55 0.56 0.56 0.57 0.57
0.34 0.31 0.28 0.27 0.25 0.24 0.23 0.23 0.22 0.21 0.20 0.19 0.18 0.18 0.19 0.19 0.19 0.19 0.19 0.20 0.20 0.19 0.19 0.20 0.20 0.20 0.20 0.21 0.22 0.22 0.23 0.25 0.27 0.29 0.31 0.33 0.35 0.37 0.39 0.40 0.41 0.42 0.42 0.42 0.43 0.44 0.44 0.44 0.43 0.41 0.41 0.41 0.40 0.40 0.39 0.38 0.37 0.36 0.36 0.36 0.35 0.35 0.35 0.34 0.33 0.32 0.32 0.32 0.33 0.34 0.35 0.35 0.36 0.37 0.38 0.41 0.46 0.50 0.51 0.53 0.55 0.55 0.56 0.56 0.57
0.31 0.29 0.27 0.26 0.24 0.23 0.22 0.21 0.20 0.19 0.19 0.19 0.18 0.18 0.18 0.19 0.19 0.19 0.19 0.19 0.19 0.19 0.19 0.19 0.19 0.19 0.20 0.21 0.21 0.22 0.23 0.25 0.26 0.28 0.31 0.32 0.34 0.35 0.37 0.38 0.39 0.39 0.40 0.40 0.41 0.41 0.40 0.40 0.40 0.39 0.38 0.38 0.37 0.36 0.35 0.34 0.34 0.33 0.33 0.34 0.35 0.36 0.36 0.35 0.34 0.33 0.33 0.33 0.34 0.35 0.35 0.35 0.36 0.37 0.37 0.37 0.40 0.46 0.50 0.51 0.53 0.54 0.55 0.56 0.56
0.29 0.27 0.26 0.25 0.23 0.21 0.20 0.20 0.19 0.19 0.18 0.18 0.18 0.18 0.18 0.19 0.19 0.18 0.18 0.18 0.18 0.18 0.18 0.18 0.18 0.19 0.20 0.20 0.21 0.22 0.23 0.24 0.26 0.28 0.30 0.31 0.32 0.34 0.35 0.36 0.36 0.37 0.37 0.37 0.37 0.37 0.37 0.37 0.37 0.37 0.36 0.35 0.34 0.34 0.33 0.33 0.32 0.31 0.30 0.30 0.31 0.33 0.36 0.37 0.35 0.34 0.34 0.34 0.35 0.35 0.35 0.34 0.34 0.35 0.35 0.35 0.36 0.41 0.45 0.48 0.52 0.53 0.54 0.55 0.56
0.28 0.26 0.24 0.23 0.21 0.20 0.19 0.19 0.18 0.18 0.18 0.18 0.17 0.17 0.18 0.18 0.18 0.17 0.18 0.17 0.17 0.17 0.17 0.17 0.17 0.18 0.19 0.20 0.21 0.22 0.22 0.24 0.25 0.26 0.28 0.30 0.32 0.32 0.33 0.34 0.35 0.35 0.35 0.35 0.35 0.35 0.35 0.35 0.35 0.34 0.34 0.33 0.33 0.32 0.31 0.30 0.29 0.29 0.27 0.27 0.27 0.27 0.31 0.33 0.35 0.36 0.35 0.36 0.35 0.36 0.35 0.35 0.34 0.35 0.35 0.36 0.37 0.38 0.41 0.45 0.49 0.51 0.53 0.54 0.55
0.27 0.25 0.23 0.21 0.20 0.20 0.19 0.19 0.18 0.18 0.18 0.17 0.17 0.17 0.17 0.17 0.17 0.17 0.17 0.17 0.16 0.16 0.17 0.17 0.17 0.18 0.18 0.18 0.19 0.20 0.21 0.22 0.23 0.25 0.26 0.28 0.30 0.32 0.32 0.33 0.33 0.33 0.33 0.33 0.34 0.34 0.35 0.34 0.34 0.34 0.33 0.33 0.33 0.32 0.32 0.31 0.30 0.28 0.27 0.26 0.24 0.24 0.25 0.29 0.35 0.38 0.38 0.37 0.37 0.36 0.36 0.36 0.35 0.35 0.35 0.35 0.37 0.36 0.37 0.40 0.44 0.48 0.51 0.53 0.53
0.25 0.23 0.22 0.20 0.19 0.19 0.19 0.18 0.17 0.17 0.17 0.17 0.17 0.17 0.16 0.16 0.16 0.16 0.16 0.15 0.15 0.15 0.16 0.16 0.17 0.18 0.18 0.19 0.19 0.19 0.20 0.21 0.22 0.23 0.25 0.26 0.28 0.29 0.30 0.31 0.32 0.32 0.32 0.32 0.32 0.32 0.32 0.32 0.33 0.32 0.32 0.32 0.32 0.32 0.31 0.31 0.31 0.30 0.29 0.26 0.25 0.24 0.24 0.25 0.29 0.37 0.40 0.40 0.40 0.39 0.37 0.36 0.35 0.35 0.35 0.36 0.37 0.36 0.35 0.37 0.41 0.44 0.48 0.51 0.53
Wind_Speed
11 11 13 14 15 15 15 15 16 16 16 17 18 19 19 20 20 21 22 22 23 23 23 23 24 24 25 25 26 26 26 26 26 27 28 28 29 29 30 30 31 32 32 33 33 33 33 32 32 32 33 33 32 32 32 32 32 32 32 31 31 30 30 30 30 29 29 30 32 32 33 33 33 32 32 32 32 31 31 30 30 29 28 27 26
11 12 13 14 15 16 16 16 16 17 17 17 18 19 20 20 21 21 22 23 23 23 24 24 24 25 25 25 26 26 26 26 27 28 28 29 30 30 31 32 32 32 33 33 32 31 31 31 31 31 31 32 33 32 32 32 32 32 32 32 32 31 31 31 31 30 29 29 31 32 32 33 34 34 33 33 33 33 32 31 31 30 30 29 27
12 13 14 15 15 16 17 17 17 17 18 18 19 20 20 20 21 22 23 23 24 24 25 25 25 25 25 26 26 26 27 27 28 29 29 30 31 31 32 33 33 33 33 33 33 31 30 29 29 30 30 31 31 32 32 32 32 32 32 33 33 33 32 32 31 31 30 29 30 31 32 33 34 35 35 35 34 34 34 33 32 31 31 30 29
12 13 14 15 16 17 17 17 17 18 19 19 20 20 20 21 21 22 23 24 24 25 25 26 26 26 26 26 27 27 28 28 29 30 30 30 31 32 33 33 34 34 34 33 33 32 30 29 28 28 28 29 30 31 31 32 32 32 32 32 33 33 33 33 32 32 32 31 30 30 31 33 34 35 35 36 36 36 35 34 33 33 32 32 31
13 14 14 15 16 17 18 18 18 18 19 20 20 21 21 21 22 23 23 24 25 25 26 26 27 27 27 27 28 28 29 29 30 31 31 31 32 33 33 34 34 34 34 33 33 32 31 29 28 28 28 27 28 29 30 31 31 32 32 32 32 33 33 33 33 33 33 32 31 30 30 32 34 35 35 36 37 37 36 35 35 34 34 33 32
13 14 14 15 16 17 18 18 18 19 20 20 21 21 22 22 22 23 24 25 25 26 26 27 27 28 28 28 29 29 30 30 31 31 32 32 32 33 33 34 34 34 34 34 33 33 32 30 29 28 27 27 27 28 29 30 30 31 32 32 32 33 33 33 34 34 34 33 32 31 30 31 33 35 36 36 38 39 38 37 36 36 36 35 34
14 14 15 16 17 18 18 19 19 20 20 21 21 22 22 22 23 24 25 26 26 27 27 27 28 28 29 29 30 30 31 31 32 32 32 33 33 33 33 34 34 34 34 34 34 33 32 31 30 28 28 27 27 27 27 28 29 30 31 31 32 32 33 33 33 34 34 34 33 32 31 30 32 34 35 36 37 38 39 39 38 37 37 37 36
14 15 16 17 17 18 19 19 20 21 21 22 22 22 23 23 24 25 26 27 27 28 28 29 29 29 30 30 31 31 31 32 32 32 33 33 33 33 34 34 34 35 35 35 34 33 33 32 31 30 28 28 27 27 27 27 28 29 30 30 31 32 32 32 33 33 34 34 34 34 32 31 31 32 34 36 37 38 39 39 40 39 39 38 37
15 16 16 17 18 19 19 20 21 22 22 23 23 23 24 25 25 26 27 28 28 29 29 30 30 31 31 31 32 32 32 33 33 33 33 33 33 34 34 34 35 35 35 35 35 34 33 32 32 31 30 29 29 28 27 27 27 28 29 30 31 31 32 32 32 32 33 34 34 34 33 32 31 31 32 34 37 38 38 38 39 39 40 39 39
16 16 17 18 19 20 21 21 22 23 23 24 24 25 25 26 26 27 28 29 29 30 30 31 31 32 32 33 33 33 33 33 34 34 34 34 34 34 34 34 35 35 36 36 35 35 34 33 32 32 32 31 30 29 28 27 27 27 28 30 31 31 32 32 33 32 33 33 34 34 34 33 32 31 32 33 36 38 38 38 38 38 39 40 40
16 17 18 19 20 21 22 22 23 24 24 25 26 26 27 27 28 29 29 30 30 31 31 32 32 32 33 33 34 34 34 34 35 35 35 34 35 35 35 35 35 35 36 36 36 36 35 34 34 33 33 32 31 31 30 28 27 27 28 29 30 32 32 32 33 33 33 33 34 34 34 34 33 32 32 32 34 37 39 39 38 38 38 40 40
17 18 19 20 21 22 22 23 24 24 25 26 27 27 28 29 29 30 30 31 32 32 32 33 33 34 34 34 35 35 35 35 36 36 36 35 35 35 35 35 35 35 36 36 36 36 36 36 35 34 33 33 32 31 31 30 29 28 28 28 29 31 32 33 33 33 33 33 34 34 34 35 34 33 33 32 33 36 38 40 40 40 39 40 40
18 19 19 20 21 22 23 24 25 25 26 27 28 28 29 30 31 31 32 33 33 34 34 35 35 35 35 36 36 36 36 36 37 37 37 37 36 36 36 36 36 36 36 36 37 37 37 36 35 34 34 34 33 31 31 30 30 29 29 29 29 29 31 32 33 33 33 34 34 35 35 35 35 34 33 33 33 35 38 40 41 41 40 41 41
18 19 20 21 22 23 24 24 25 26 27 28 29 29 30 31 32 33 33 34 35 35 36 36 36 36 37 37 37 37 37 38 38 38 38 37 37 37 37 37 36 36 36 36 37 37 37 37 36 35 35 34 33 32 31 30 30 30 29 29 28 28 29 31 32 33 34 34 34 35 35 35 35 34 34 34 34 35 38 40 41 41 40 40 41
19 20 21 22 23 24 24 25 26 27 28 29 30 31 32 33 34 34 35 36 36 37 37 38 38 38 38 38 39 39 39 39 40 39 39 38 38 37 37 37 37 37 36 37 37 37 37 37 37 36 36 35 34 33 31 30 30 29 29 29 28 28 28 29 31 32 33 33 34 35 35 35 35 35 34 34 35 35 37 40 41 41 40 39 39
19 20 22 23 24 25 25 26 27 29 30 31 32 33 34 35 35 36 37 37 38 38 38 39 39 39 39 39 40 40 40 40 40 40 40 39 39 38 38 38 38 37 37 37 37 37 37 37 37 37 36 35 34 33 31 29 29 28 28 28 28 28 28 28 29 31 32 33 34 34 35 35 35 35 34 34 34 34 36 39 41 41 41 39 38
20 22 23 24 25 26 27 28 29 31 32 33 34 34 35 36 37 38 38 38 38 39 39 39 39 40 40 40 40 41 41 41 41 41 40 40 39 39 39 38 38 38 38 38 38 37 37 38 38 37 36 35 34 33 31 29 28 28 28 28 28 28 28 28 28 29 31 32 33 34 35 35 35 35 34 34 33 33 35 38 40 41 41 39 38
22 23 24 25 27 28 29 30 32 33 33 34 35 36 37 37 38 37 38 38 39 39 39 39 39 39 39 40 40 41 41 41 41 40 40 40 39 39 39 39 39 39 39 38 38 38 38 38 38 37 37 36 34 33 31 28 27 27 28 27 27 28 28 27 27 28 29 30 32 33 34 34 34 35 34 34 33 32 34 38 40 40 40 40 38
23 25 26 27 29 30 31 32 33 33 34 35 35 36 36 36 37 37 37 38 38 39 39 39 39 38 39 39 40 41 41 41 40 40 40 40 40 40 39 39 39 39 39 39 39 38 38 38 38 37 37 36 35 33 30 28 27 27 27 27 27 27 27 27 27 27 28 29 30 31 32 33 33 33 34 34 32 31 33 36 40 40 40 39 38
25 26 28 29 29 30 31 32 32 33 33 34 35 35 36 36 37 37 37 37 38 38 38 38 39 39 39 40 41 41 41 41 41 41 41 41 41 41 40 40 39 40 40 39 39 39 39 39 38 37 37 36 35 33 31 29 27 27 27 26 26 27 26 26 27 27 27 28 29 30 31 31 31 32 32 33 32 30 30 33 38 40 39 39 38
26 27 28 28 29 30 30 31 32 32 33 34 35 35 36 36 37 37 37 37 38 38 38 39 40 41 41 41 41 41 41 42 42 42 42 42 42 41 41 40 40 40 40 40 40 40 40 39 38 37 36 36 35 33 31 29 28 27 27 26 26 26 26 26 27 27 27 27 28 28 29 30 30 30 31 31 31 30 29 30 34 38 39 39 38
26 27 27 28 29 30 31 31 33 34 34 35 35 36 36 36 37 37 37 38 38 39 40 41 41 42 42 42 42 42 42 42 42 42 42 43 42 41 41 40 40 40 41 40 40 41 41 40 38 37 36 36 35 33 31 30 28 27 27 27 27 26 26 26 26 26 25 26 26 27 27 28 28 29 30 30 29 29 29 29 31 34 38 40 38
25 26 27 28 29 30 32 33 34 35 35 35 35 36 36 36 37 38 38 39 40 41 41 42 43 43 43 43 42 42 42 42 42 43 43 43 43 42 41 41 40 41 41 41 42 42 41 40 39 37 36 36 34 32 31 29 28 27 26 26 26 26 25 24 24 25 24 24 25 25 26 26 27 28 28 29 29 29 29 29 31 32 34 37 36
25 26 28 29 30 32 33 34 35 35 35 35 36 36 36 37 38 39 39 40 41 42 42 43 43 44 44 44 43 43 43 43 43 43 43 43 43 43 42 41 41 41 41 42 42 42 41 40 39 37 36 35 34 31 30 29 28 26 26 25 25 24 24 23 23 23 23 23 23 24 24 25 26 27 28 28 28 28 28 29 31 31 32 33 34
26 27 29 30 32 33 34 34 34 35 35 35 36 36 37 38 39 40 41 41 42 42 43 44 44 44 45 45 44 44 44 44 44 44 44 44 44 43 43 42 42 41 42 42 42 42 41 40 39 37 36 34 33 30 28 27 26 25 25 24 24 23 22 22 22 22 22 22 22 23 23 23 24 26 26 27 27 28 28 28 30 31 31 31 31
27 28 30 31 32 33 34 34 34 35 35 36 36 37 38 39 40 41 41 42 42 43 44 44 45 45 45 46 45 45 45 45 45 45 45 45 45 45 44 43 43 43 43 43 43 42 41 39 38 36 35 33 31 29 27 26 25 24 24 23 22 21 21 21 21 21 21 21 21 22 22 22 23 23 24 25 26 27 27 28 29 30 31 32 32
28 29 30 32 33 33 34 34 35 35 36 37 37 38 39 39 40 41 41 42 43 43 44 45 45 46 46 46 46 46 46 46 46 46 47 47 47 46 45 45 44 44 43 43 43 42 40 38 37 35 34 32 30 28 26 25 24 23 22 21 20 20 19 20 20 20 20 20 21 21 21 21 22 22 22 23 24 25 27 28 28 29 31 33 33
28 30 31 32 33 34 34 35 36 36 37 37 38 39 39 39 40 40 41 42 43 44 45 45 46 46 47 47 47 46 46 46 46 47 48 48 48 48 47 47 46 45 44 43 43 41 39 37 36 34 32 30 28 26 25 23 23 21 20 20 19 19 18 18 18 18 18 19 19 20 20 21 22 22 22 22 22 23 25 27 28 28 29 31 32
29 30 31 32 33 34 35 35 36 37 37 38 38 38 39 39 40 41 41 42 43 45 45 46 47 47 47 47 47 47 47 47 48 48 49 49 48 48 48 48 47 47 45 44 42 40 38 37 35 33 31 29 27 25 24 23 22 21 20 19 19 18 18 18 17 17 17 17 17 18 19 19 20 22 22 21 21 22 23 24 26 27 28 30 31
30 31 32 33 34 34 35 36 36 37 37 38 38 39 39 40 41 42 43 43 44 45 46 46 47 48 48 48 48 48 49 49 50 50 50 50 50 50 49 48 48 47 46 43 41 39 37 36 34 32 30 28 26 24 23 23 22 20 19 19 18 18 17 17 17 17 16 16 16 16 18 18 19 20 21 21 21 21 22 23 25 26 28 29 30
30 31 32 33 34 35 35 36 36 37 38 38 39 40 41 42 42 43 44 45 46 46 47 47 48 48 49 49 50 50 51 52 52 52 52 52 52 51 50 49 48 47 45 42 40 38 36 35 33 31 29 27 25 24 23 23 21 20 19 18 18 17 17 17 17 17 16 16 15 15 16 17 18 19 20 20 20 20 21 22 23 24 26 28 29
31 32 33 33 34 35 36 36 37 38 38 39 40 41 42 43 44 45 45 46 47 48 48 49 49 49 49 50 51 51 52 53 54 54 54 53 53 53 51 50 48 46 43 41 39 37 36 34 31 29 27 26 24 23 23 22 21 19 19 18 17 17 17 17 17 17 16 16 15 15 15 16 17 18 19 20 20 20 20 20 21 21 23 26 27
31 32 33 33 34 35 36 37 38 38 39 40 41 42 44 45 46 47 47 48 48 49 49 49 49 50 50 50 51 52 53 53 54 54 54 54 54 53 52 50 48 45 42 39 37 36 34 32 29 28 26 24 23 22 22 21 20 18 18 18 17 17 16 17 17 17 16 15 15 15 15 15 16 18 19 20 20 20 20 20 19 19 21 23 25
32 32 33 34 35 36 36 37 38 39 40 41 42 43 44 45 47 48 49 50 50 49 49 49 49 50 50 50 51 52 53 53 54 54 54 54 54 54 53 50 47 44 40 38 35 34 32 30 28 26 23 22 21 21 21 20 19 17 17 17 16 16 16 16 17 17 16 15 14 14 15 16 16 17 18 19 20 20 21 21 20 18 19 22 24
32 33 33 34 35 36 37 38 39 40 41 42 43 44 45 46 47 49 50 50 50 49 49 49 49 50 51 51 52 53 54 54 54 55 54 55 55 54 52 49 46 42 39 36 33 31 29 28 25 23 21 20 20 20 19 18 17 16 16 16 16 16 15 16 16 16 16 15 14 14 14 16 16 17 17 19 20 20 21 21 21 19 19 21 23
32 33 34 35 36 36 37 38 39 41 42 43 44 45 46 47 48 49 49 49 49 49 49 49 50 50 51 51 53 54 55 55 55 55 55 55 55 53 50 47 45 41 37 34 31 28 26 25 22 21 20 20 19 18 17 16 15 15 15 14 14 14 14 15 15 15 14 14 14 13 14 15 16 17 17 18 19 20 20 21 21 20 19 20 22
32 33 34 35 36 37 38 39 40 41 42 43 44 46 46 47 48 48 48 48 48 48 49 49 50 51 52 52 54 55 56 56 56 56 55 55 53 51 48 46 43 39 35 31 28 25 23 22 20 20 19 19 17 15 14 13 13 14 14 14 13 13 13 14 14 14 13 13 13 13 13 14 15 16 16 17 19 19 20 20 21 20 19 19 20
33 34 35 36 37 38 39 40 41 42 43 44 45 46 46 47 47 47 47 47 47 48 48 49 51 52 53 54 56 57 58 57 57 56 55 54 52 49 47 44 40 36 32 28 24 22 21 19 18 18 17 16 14 12 11 11 12 13 13 13 12 12 13 13 13 12 12 12 12 13 13 13 14 15 16 17 18 19 19 20 20 20 19 19 20
34 35 36 37 38 38 39 40 41 43 43 44 45 45 45 46 46 46 46 46 47 48 49 50 51 52 54 56 57 58 59 58 57 56 56 54 52 49 45 41 37 32 29 25 22 20 19 17 16 16 15 14 12 11 11 11 12 12 12 12 11 11 12 12 12 11 11 11 12 12 12 12 13 14 15 16 17 19 19 20 20 20 20 21 21
34 36 37 38 38 39 40 41 42 43 43 43 44 44 45 45 45 45 46 46 47 48 49 50 51 53 54 56 57 58 58 57 57 56 55 54 51 48 43 39 34 29 26 22 19 17 16 14 14 13 13 11 10 10 10 10 10 10 10 10 10 11 11 11 11 10 11 11 11 11 11 11 12 13 14 15 16 17 19 20 20 20 21 22 22
35 36 37 38 39 40 41 41 42 42 42 43 43 44 44 44 44 45 45 46 47 48 49 50 51 53 54 56 58 58 57 56 55 55 54 52 50 47 42 37 32 27 23 19 16 14 12 11 11 11 10 9 8 8 8 8 8 8 9 9 10 10 10 11 11 10 10 10 11 11 11 11 11 12 13 13 15 16 17 19 21 21 21 22 22
36 37 38 39 40 40 41 41 41 41 42 42 43 43 43 44 44 44 45 46 47 48 49 50 51 52 54 56 58 57 55 54 53 52 51 50 48 44 40 35 30 24 20 16 12 10 9 9 9 9 8 7 6 6 6 6 7 8 8 9 9 10 10 11 11 10 10 10 11 11 11 11 12 12 12 13 14 14 15 17 19 20 21 22 22
37 38 39 39 40 40 40 40 40 41 41 41 42 42 43 43 44 44 45 46 47 48 49 50 51 53 54 56 57 56 54 53 51 50 49 47 45 42 38 34 28 22 17 12 8 7 6 6 7 8 7 6 5 5 5 6 7 8 8 9 9 10 10 10 11 10 10 10 10 10 11 11 11 12 12 13 13 14 14 15 17 19 21 22 22
38 38 39 39 39 39 39 39 40 40 40 41 42 42 43 43 43 44 45 46 47 48 49 50 51 52 53 55 55 54 53 52 50 47 46 44 42 39 36 32 27 21 15 9 3 2 3 4 5 7 6 4 3 3 5 7 8 9 9 9 9 10 10 10 11 10 10 9 9 10 10 11 11 11 12 12 13 14 14 14 14 16 19 22 23
38 38 38 38 38 38 38 39 39 39 40 41 41 42 42 43 43 44 45 46 47 48 49 50 51 52 53 53 53 53 52 50 48 45 43 41 38 36 34 31 27 22 17 12 7 6 6 6 6 6 4 2 2 4 6 7 8 9 9 9 9 9 9 9 10 10 10 9 9 9 10 10 11 11 12 12 13 14 14 14 14 14 16 18 21
37 37 37 37 37 37 38 38 38 39 40 40 41 42 42 43 43 44 45 46 46 47 48 50 51 51 51 51 52 51 50 48 45 42 40 38 36 33 31 28 25 23 19 15 12 10 9 7 6 4 2 1 3 5 7 8 9 9 9 9 9 9 9 9 9 9 9 9 9 9 9 10 10 11 11 12 12 13 14 14 14 14 14 15 17
37 36 36 36 36 36 37 37 38 39 39 40 41 41 42 43 43 44 45 46 46 47 48 49 50 50 50 50 50 49 48 46 43 40 37 35 33 31 28 25 23 21 18 15 12 10 8 6 4 2 2 3 5 6 7 8 9 10 10 10 9 8 9 9 9 9 9 9 9 9 9 9 9 10 10 11 12 13 14 14 14 13 14 14 15
36 36 35 35 36 36 37 37 38 39 39 40 41 41 42 42 43 44 45 45 46 47 47 48 49 49 49 48 48 47 46 44 41 38 35 32 30 28 27 24 21 19 17 14 12 10 8 6 5 4 5 5 6 6 7 8 9 10 10 10 10 9 9 9 9 9 9 9 9 8 9 9 9 9 10 10 11 12 14 15 15 14 14 14 14
35 35 35 35 35 36 36 37 38 38 39 40 41 41 42 42 43 44 44 45 46 46 47 47 48 48 47 47 46 45 43 41 39 36 34 31 28 26 24 23 20 18 16 14 12 10 8 7 7 7 7 7 7 8 8 9 10 10 10 10 10 10 10 9 9 9 9 9 8 8 8 9 9 9 10 10 11 12 13 14 15 15 15 15 15
34 34 35 35 35 35 36 37 37 38 39 40 40 41 41 42 43 43 44 45 45 46 46 46 46 46 46 46 45 44 42 39 37 35 33 30 28 25 23 21 19 17 15 12 11 9 8 8 8 8 9 9 9 10 10 10 10 11 11 11 11 11 10 9 9 8 8 8 8 8 8 8 9 9 10 10 11 12 13 14 15 15 15 15 16
34 34 34 34 34 35 36 36 37 38 39 39 40 41 41 42 42 43 44 44 45 45 45 45 45 45 45 44 43 42 40 38 36 34 32 30 27 25 23 21 18 16 14 12 10 9 9 8 9 9 10 10 10 11 11 11 11 11 11 12 12 11 11 10 9 9 8 8 8 8 8 8 8 9 9 10 11 12 13 13 14 15 16 16 16
Wind_Direction
341 343 347 350 350 349 351 351 351 350 348 348 348 346 345 345 344 345 345 344 343 342 341 340 340 340 340 341 341 341 341 341 340 339 339 337 336 334 332 330 328 326 323 320 315 309 303 298 292 287 284 282 280 278 276 274 272 271 270 269 269 268 268 267 267 267 264 260 256 254 252 251 249 247 246 246 245 244 243 242 241 239 238 238 238
338 341 345 347 346 346 347 348 348 347 346 345 344 343 342 342 343 344 344 344 343 343 342 341 340 340 340 340 341 341 340 339 338 337 337 337 336 335 334 333 331 330 329 327 323 317 310 304 298 292 287 282 280 278 276 274 273 271 270 269 268 268 267 266 266 266 266 263 259 256 253 250 248 246 245 245 244 243 241 241 240 239 238 237 236
335 338 341 342 343 343 344 344 346 345 343 342 342 341 341 341 342 343 343 343 342 342 341 341 340 339 339 339 339 339 338 337 336 336 336 336 336 336 335 334 334 333 332 331 329 325 318 311 305 299 293 286 282 278 276 274 272 271 270 268 268 267 266 266 265 265 265 265 262 258 255 251 249 247 245 244 243 242 240 240 239 238 237 236 235
332 334 336 338 339 340 340 340 342 342 341 341 340 339 340 340 341 341 341 341 342 341 341 340 339 339 338 337 337 336 336 335 335 334 334 334 335 335 335 335 334 334 334 333 332 329 324 318 312 307 300 292 286 281 278 275 273 271 270 269 267 266 266 265 264 264 264 264 263 260 257 253 250 247 246 244 242 240 239 239 238 237 237 236 235
327 329 332 333 335 336 335 336 338 338 338 338 338 337 338 338 338 338 339 339 339 339 339 338 338 338 337 336 335 334 333 333 333 333 333 333 333 334 334 334 334 334 334 333 332 331 327 321 317 313 308 300 292 286 281 277 274 272 270 269 267 266 265 264 264 263 263 263 263 262 259 256 251 248 245 244 242 239 238 238 237 237 236 236 235
324 326 328 329 330 331 331 332 333 334 334 335 335 335 335 335 335 335 336 335 335 336 336 335 335 335 334 333 333 332 331 331 332 332 332 332 332 333 333 334 334 334 333 333 331 330 328 323 318 315 312 307 300 292 285 280 276 273 271 270 268 267 266 264 263 262 262 262 262 261 260 257 254 249 246 244 241 239 238 237 236 236 236 235 234
321 323 324 324 326 327 328 328 329 330 331 332 332 332 332 332 332 332 332 332 332 332 333 332 332 331 331 331 331 330 330 330 331 331 331 331 331 332 333 333 333 333 333 332 331 329 328 325 320 315 312 309 305 299 292 284 278 274 272 270 269 268 266 265 264 262 261 260 260 260 259 258 255 251 248 245 242 239 238 237 236 235 235 235 234
318 319 320 321 323 324 326 326 327 328 329 329 330 330 329 329 328 329 329 329 329 330 330 330 330 329 329 329 328 328 328 329 329 329 329 329 330 330 331 331 332 332 332 332 330 328 327 325 321 316 312 308 305 302 298 291 283 277 273 270 269 268 266 265 264 262 261 260 259 258 258 257 256 253 249 245 242 239 238 238 237 235 234 234 234
315 316 317 318 320 323 324 325 325 325 326 327 328 328 327 326 326 326 326 327 327 328 328 328 328 328 327 327 327 326 326 326 327 327 327 327 327 328 328 328 329 330 330 330 329 328 326 324 322 317 313 308 305 302 299 295 289 282 276 272 269 268 266 265 264 262 260 259 258 257 256 256 255 254 250 246 242 240 239 238 237 236 234 233 233
312 314 315 317 319 322 323 323 323 323 324 325 325 325 325 325 325 324 324 325 325 326 326 326 326 326 326 326 326 325 325 325 325 324 325 325 325 325 325 326 326 327 328 328 328 327 326 324 322 319 314 310 305 301 298 296 293 288 282 276 271 268 266 265 264 262 261 259 257 257 256 255 255 254 251 248 244 241 239 237 236 235 233 232 232
311 312 314 316 319 321 321 321 322 322 323 323 323 323 323 323 323 323 323 323 323 323 324 324 324 324 325 325 325 325 325 325 323 323 323 323 323 323 323 323 324 324 325 326 326 326 325 323 322 319 316 311 306 301 298 295 292 290 286 281 274 269 266 264 263 262 261 259 257 255 255 254 254 253 253 250 246 242 239 237 235 234 233 233 232
311 312 313 316 318 319 320 321 321 321 321 321 321 322 322 322 322 321 321 321 321 321 322 322 323 323 323 324 324 324 324 324 323 322 322 321 321 321 322 322 322 322 323 324 324 325 324 323 322 320 317 313 307 302 297 294 291 289 288 284 279 273 267 263 262 261 261 259 257 255 254 254 253 252 252 251 247 243 239 237 235 234 233 233 233
311 311 313 315 316 318 319 320 320 319 319 320 320 321 321 320 320 320 320 320 320 321 321 321 321 321 322 322 323 323 323 322 322 322 321 320 320 319 320 320 320 320 321 322 323 324 324 323 322 321 319 316 310 303 297 292 290 288 288 285 282 277 271 266 262 260 259 259 258 256 254 253 252 251 251 251 249 244 239 236 235 234 234 234 234
309 310 312 314 316 318 319 319 318 318 318 319 319 320 320 320 320 320 320 320 319 319 319 319 319 319 320 320 321 322 322 321 321 320 320 320 319 318 319 319 319 319 320 320 321 322 322 322 321 321 320 318 314 307 299 293 290 288 286 285 282 280 276 270 265 261 258 258 258 256 255 253 252 251 251 251 250 246 241 236 235 235 235 235 234
308 310 312 314 316 317 318 318 317 317 318 318 319 319 319 319 319 319 319 319 318 318 318 318 317 317 318 318 319 320 321 320 319 319 319 318 318 317 317 317 318 318 318 319 320 321 321 320 320 320 320 319 317 310 302 296 291 288 285 284 282 281 278 273 268 263 260 258 257 256 255 253 252 251 250 250 250 248 243 238 235 234 234 234 233
310 311 312 314 316 317 317 317 317 317 317 317 317 318 318 318 318 318 318 317 317 317 317 317 317 317 317 317 318 319 319 319 318 318 317 317 317 317 316 316 316 316 317 318 319 320 320 319 319 319 319 319 318 314 306 298 293 290 286 284 282 281 280 276 271 266 262 259 257 256 254 253 251 250 249 249 249 249 245 238 233 232 232 232 231
310 311 313 314 316 317 317 317 316 316 316 316 316 316 316 316 317 317 317 317 317 317 316 316 317 317 316 316 317 318 319 319 318 317 316 316 316 316 316 315 315 314 315 316 317 318 318 317 317 318 318 319 318 315 309 301 294 291 288 285 282 281 281 279 275 270 264 260 258 256 254 252 250 249 248 248 250 250 244 236 231 230 229 229 230
310 311 313 314 316 316 316 316 316 316 315 315 315 315 315 316 316 317 317 317 318 318 317 317 317 317 316 317 317 318 319 319 318 318 317 316 316 316 315 314 313 313 314 315 316 317 317 315 315 316 317 317 317 315 311 304 296 291 289 286 282 280 282 282 279 274 268 263 260 257 254 252 250 248 247 247 249 249 244 236 230 229 228 228 229
311 312 313 315 316 316 316 316 316 315 315 315 316 317 317 318 318 319 319 319 319 319 319 319 319 319 319 318 318 318 319 319 318 318 317 316 316 316 315 313 312 312 313 313 314 315 315 314 313 313 314 314 314 314 311 305 298 292 290 287 282 280 282 283 281 277 271 265 262 258 256 253 250 247 245 244 245 247 244 237 230 227 226 226 226
313 314 314 315 316 317 318 318 317 317 318 319 319 319 320 320 320 320 320 320 321 321 321 321 321 321 320 319 319 318 318 318 318 317 316 316 315 315 314 312 311 311 312 312 313 314 314 313 312 311 311 311 311 311 309 305 299 293 290 287 283 281 281 282 282 280 274 268 263 259 257 254 250 247 245 243 242 244 243 237 230 226 225 225 225
315 316 316 318 319 319 320 320 320 320 321 321 321 321 321 321 321 321 321 321 321 321 321 321 321 321 321 320 319 319 318 318 318 317 316 316 315 314 313 311 310 310 311 311 312 313 313 312 311 310 310 309 308 308 307 304 300 294 289 286 284 283 282 282 283 281 276 269 263 259 256 253 249 246 243 241 241 241 241 237 230 226 225 224 224
316 318 319 320 320 321 321 321 322 322 322 322 322 322 322 321 321 321 321 321 322 322 322 321 321 321 320 320 319 318 318 318 318 317 317 317 316 314 313 311 310 309 310 310 311 311 311 311 309 308 308 307 307 306 305 302 300 296 290 287 285 284 282 281 282 282 278 270 262 258 255 251 246 243 241 240 239 239 239 236 231 227 226 225 226
319 320 320 321 321 321 321 322 322 322 322 322 322 322 322 322 322 322 322 322 322 322 321 321 321 320 320 320 319 318 318 319 318 318 318 317 317 315 313 311 310 309 309 310 310 311 311 310 309 307 306 306 305 305 303 300 298 295 292 290 287 284 282 281 281 282 279 272 263 258 255 249 244 242 240 239 238 237 237 234 230 229 228 226 226
320 320 321 321 321 321 322 322 322 322 322 322 322 322 323 323 322 322 322 322 321 321 322 322 321 321 320 320 319 319 319 319 319 318 318 317 317 316 314 312 310 309 309 309 310 310 310 309 308 306 305 304 304 303 301 299 296 294 293 292 289 285 282 282 282 282 279 273 264 259 254 248 243 241 240 239 237 236 235 232 229 228 228 226 224
320 321 321 321 322 322 322 323 323 322 322 323 323 323 323 323 323 323 323 322 322 322 322 322 322 322 321 321 320 319 319 319 319 318 317 317 316 316 315 313 311 309 309 309 309 309 309 308 307 305 303 303 303 301 299 297 295 293 292 292 290 285 282 282 282 282 280 274 266 260 254 248 243 241 240 238 237 235 233 230 226 225 225 223 222
321 321 322 322 323 323 324 324 323 323 323 323 323 324 324 324 324 324 324 324 324 324 324 324 323 323 323 322 321 320 319 319 318 318 317 317 316 315 314 313 312 310 309 309 309 308 308 307 305 304 302 301 301 300 298 295 293 292 291 292 290 286 283 282 283 283 281 275 267 260 254 248 243 240 239 237 236 234 231 228 226 225 224 222 221
321 322 323 323 324 324 324 324 324 323 324 324 324 324 325 325 325 326 326 326 326 325 326 325 325 325 324 323 322 321 320 319 318 318 318 317 316 316 314 313 312 311 310 309 309 308 307 306 304 303 301 299 299 297 295 293 292 291 290 290 289 287 285 284 283 282 281 276 268 259 253 247 241 238 238 236 234 232 230 227 226 226 225 223 222
322 323 324 324 325 325 324 324 324 324 325 325 326 326 327 327 327 327 328 327 327 327 327 327 327 326 326 325 324 323 322 321 320 320 319 317 316 315 314 313 312 311 310 309 308 307 306 304 303 301 299 298 297 295 293 290 289 289 289 287 287 286 286 286 285 285 283 278 269 259 252 247 240 236 235 234 232 230 228 226 225 225 224 222 220
323 324 324 325 325 325 325 325 325 326 326 327 327 327 327 328 328 328 328 328 327 327 327 327 327 326 326 326 325 325 324 323 322 321 320 319 317 316 314 313 311 309 308 308 308 306 304 303 302 300 298 297 295 292 289 287 287 287 287 286 285 285 286 288 289 288 287 281 271 259 251 246 240 235 232 230 230 229 227 226 225 225 225 222 220
324 324 325 325 325 325 326 326 327 327 328 328 328 328 328 328 328 328 328 328 328 327 327 326 326 326 325 325 325 324 324 323 323 322 321 320 319 317 315 313 311 309 307 305 304 304 302 301 300 298 296 294 293 289 285 284 284 284 284 284 283 283 285 288 289 290 288 282 271 259 250 244 238 233 229 229 230 230 229 228 228 227 226 224 222
325 325 325 325 326 326 327 328 328 329 329 329 328 328 328 329 329 329 328 328 328 328 327 327 326 326 325 325 324 324 323 323 323 322 321 320 319 318 316 314 312 310 307 302 299 299 299 298 297 295 293 292 290 286 282 280 280 280 280 280 280 280 282 286 289 290 288 282 272 260 251 243 237 233 231 230 231 231 230 230 230 229 228 226 224
325 326 326 327 327 328 329 329 329 329 329 329 329 329 329 329 329 329 329 329 329 329 328 327 327 326 326 326 325 324 324 324 323 322 321 320 319 318 316 314 312 310 307 303 297 294 295 295 294 293 291 290 287 283 279 277 277 277 277 277 278 278 280 284 287 289 287 282 272 261 253 246 239 234 232 231 231 230 230 229 230 230 229 227 224
327 327 327 328 329 329 330 330 330 330 330 330 330 330 330 330 329 329 329 329 329 329 329 328 328 328 328 328 327 327 326 325 325 323 322 321 320 318 317 315 312 309 307 303 298 293 291 291 291 289 289 288 285 281 278 275 273 273 274 275 276 277 279 281 285 287 285 280 271 261 253 247 241 236 232 231 230 230 228 227 228 230 230 227 224
328 328 329 329 330 330 330 330 330 330 330 331 331 331 331 330 330 330 329 329 329 330 330 330 330 330 330 330 329 329 328 327 326 325 323 322 321 319 317 315 313 309 305 302 298 292 289 288 287 285 285 285 283 279 276 273 270 271 273 273 274 277 278 280 284 286 283 277 271 261 251 245 243 239 235 232 230 229 228 226 227 229 230 228 225
329 329 330 330 330 330 330 330 331 331 331 331 331 331 331 331 330 330 330 330 330 331 331 331 332 332 331 331 331 331 330 329 328 326 325 323 322 321 319 316 314 311 306 301 296 291 287 287 284 280 280 283 282 278 274 271 268 268 271 272 273 275 277 278 282 285 281 273 268 261 252 244 242 241 238 234 230 228 227 226 226 229 230 228 225
330 330 330 331 331 331 331 331 331 331 331 331 332 331 331 331 331 331 331 332 332 332 332 332 332 332 333 333 333 333 332 331 330 328 327 325 324 323 322 319 316 313 308 301 295 290 286 284 279 275 277 281 283 280 273 267 264 266 269 271 271 273 275 278 282 283 278 270 265 261 254 246 241 240 239 235 230 228 227 226 227 228 228 226 224
331 331 331 331 331 331 331 331 331 332 332 332 332 332 332 332 332 333 333 333 334 334 334 334 334 334 334 334 334 334 333 333 332 331 329 328 327 325 323 321 318 315 310 303 296 289 285 281 274 271 274 280 282 280 271 264 263 265 268 270 272 272 275 280 282 281 277 270 264 259 255 248 242 239 237 234 230 227 226 225 226 227 226 224 222
331 332 332 332 331 331 331 332 332 332 332 332 332 332 333 333 334 334 335 335 335 335 335 336 336 336 336 336 335 335 335 334 333 333 332 331 329 327 325 323 320 316 312 306 296 288 285 280 271 267 271 276 278 273 263 259 264 268 269 271 273 274 277 280 281 280 277 271 264 258 253 248 242 238 236 234 232 230 227 226 226 225 223 222 219
332 332 332 332 332 331 332 332 333 333 333 333 333 334 334 335 335 336 336 336 337 337 337 338 338 338 337 337 337 337 336 336 335 335 334 333 332 330 328 325 321 317 313 307 297 287 283 278 268 262 265 269 269 265 260 262 268 271 271 273 276 278 281 281 279 279 278 272 264 258 253 247 242 237 235 234 235 233 229 226 225 223 221 220 217
332 332 332 332 332 332 333 333 333 333 334 334 335 335 336 336 337 337 338 338 338 339 339 339 340 339 339 339 339 339 338 338 337 337 337 336 335 334 331 328 323 319 314 307 296 286 282 276 263 256 257 258 259 263 266 269 273 274 274 275 279 282 283 282 279 278 278 273 266 259 253 247 242 238 235 235 235 233 229 227 225 224 221 219 216
332 332 332 332 332 333 333 334 334 334 335 336 336 337 337 337 338 338 339 339 339 340 341 341 341 341 341 341 341 341 340 340 340 340 339 339 338 337 335 332 327 321 315 308 295 282 277 272 258 248 246 246 251 263 272 277 281 282 278 279 281 282 283 284 284 282 278 272 267 261 253 247 244 240 237 235 236 234 230 227 226 226 223 220 218
332 332 332 332 333 333 334 335 335 336 337 337 338 338 338 339 339 339 340 340 340 341 342 343 343 343 343 343 343 343 343 343 343 343 343 343 343 341 340 338 334 327 319 310 295 275 268 265 250 235 230 233 245 263 279 289 295 294 287 284 284 283 281 284 288 287 279 270 266 262 256 250 245 241 237 235 235 234 232 229 228 227 225 223 221
332 332 333 333 334 334 335 336 337 338 338 338 339 339 340 340 340 340 341 341 342 343 343 344 344 344 344 345 345 345 345 345 345 346 347 348 348 349 348 347 344 339 330 319 296 266 253 244 223 210 209 219 238 262 286 302 309 308 299 291 288 286 282 282 285 287 282 272 266 263 259 252 245 240 237 235 234 233 233 232 230 228 226 224 223
332 333 333 334 335 335 336 337 338 339 339 340 340 341 341 341 341 341 342 343 343 344 344 345 345 345 345 346 347 347 348 348 348 349 351 351 353 356 359 359 359 357 354 349 332 216 186 172 172 178 185 202 236 277 302 312 318 317 309 299 294 292 288 282 281 283 283 276 268 264 260 254 248 243 238 236 234 233 233 234 232 229 227 225 225
333 334 335 335 336 337 338 339 339 339 340 341 341 341 341 342 342 343 344 344 345 345 345 345 346 346 347 347 348 349 350 350 351 352 354 355 357 1 5 10 14 19 23 32 58 103 120 120 128 145 162 193 276 310 320 324 327 326 317 306 298 296 294 287 280 278 279 277 271 266 263 259 254 248 242 237 234 233 234 234 233 230 227 225 225
334 335 336 336 337 338 339 339 340 341 342 342 342 342 342 343 343 344 345 345 345 346 346 346 347 347 348 349 349 350 352 352 353 355 357 359 1 4 8 14 21 28 34 45 63 85 99 105 113 126 138 317 325 327 329 331 334 334 328 316 303 296 295 291 284 278 277 276 272 268 264 260 257 252 247 241 237 234 232 231 231 230 228 226 226
336 336 337 337 338 339 340 340 341 342 343 343 343 343 343 344 344 345 346 346 346 346 346 347 347 348 348 349 350 351 353 354 355 357 359 1 4 8 12 16 22 28 34 43 56 70 81 87 88 75 17 337 328 329 331 332 334 336 334 328 318 304 296 293 288 282 278 276 273 269 266 262 258 255 250 244 239 234 230 228 228 229 227 226 226
337 337 338 338 339 340 340 341 342 343 343 343 344 344 344 345 346 346 346 346 346 346 347 347 348 349 349 350 351 352 353 355 356 358 360 2 5 9 14 18 23 26 31 38 48 57 61 57 43 25 6 348 338 336 337 336 336 336 336 334 329 318 305 296 290 284 280 276 273 270 269 265 261 257 253 247 240 234 229 227 227 227 226 225 224
337 337 338 339 340 340 341 342 343 343 344 344 344 345 345 346 346 347 347 347 347 347 347 348 349 349 350 351 351 352 354 355 356 358 360 2 3 6 11 15 19 22 26 30 37 43 44 37 25 15 5 355 349 347 345 342 341 339 338 336 332 326 316 304 294 286 280 276 272 271 270 267 263 259 254 250 245 238 232 229 229 228 227 225 222
337 338 339 340 340 341 342 343 343 344 344 344 344 345 346 346 347 347 347 348 348 348 348 349 349 350 350 351 352 353 354 355 356 357 359 1 1 2 5 9 12 15 18 19 20 23 25 21 13 6 359 354 350 348 345 343 340 339 338 337 335 331 324 314 303 292 283 276 272 270 270 268 265 261 257 253 249 244 237 232 231 230 229 226 223
338 338 339 340 341 342 342 343 344 344 344 344 345 345 346 346 347 348 348 348 349 349 349 349 350 350 351 352 353 353 354 355 356 358 359 359 358 359 1 1 1 3 5 4 3 3 5 3 0 357 354 349 346 343 342 340 336 334 334 335 335 334 330 322 312 302 292 283 276 274 273 270 267 266 261 255 251 247 240 233 231 231 229 227 224